Time,TemperatureF,DewpointF,PressureIn,WindDirection,WindDirectionDegrees,WindSpeedMPH,WindSpeedGustMPH,Humidity,HourlyPrecipIn,Conditions,Clouds,dailyrainin,SoftwareType,DateUTC
2013-04-22 00:01:00,48.0,33.0,-100.00,NNE,25,4.0,6.0,55,-99.99,,,-99.99,,2013-04-22 07:01:00,
2013-04-22 00:11:00,48.0,33.0,-100.00,NNE,31,5.0,8.0,56,-99.99,,,-99.99,,2013-04-22 07:11:00,
2013-04-22 00:21:00,48.0,33.0,-100.00,NE,43,7.0,10.0,55,-99.99,,,-99.99,,2013-04-22 07:21:00,
2013-04-22 00:32:00,49.0,33.0,-100.00,NE,48,8.0,11.0,54,-99.99,,,-99.99,,2013-04-22 07:32:00,
2013-04-22 00:42:00,49.0,33.0,-100.00,NE,53,9.0,12.0,54,-99.99,,,-99.99,,2013-04-22 07:42:00,
2013-04-22 00:52:00,48.0,33.0,-100.00,NE,50,7.0,10.0,55,-99.99,,,-99.99,,2013-04-22 07:52:00,
2013-04-22 01:01:00,47.0,32.0,-100.00,NE,44,6.0,8.0,56,-99.99,,,-99.99,,2013-04-22 08:01:00,
2013-04-22 01:11:00,47.0,33.0,-100.00,NE,35,4.0,7.0,57,-99.99,,,-99.99,,2013-04-22 08:11:00,
2013-04-22 01:21:00,46.0,32.0,-100.00,NNE,24,4.0,6.0,58,-99.99,,,-99.99,,2013-04-22 08:21:00,
2013-04-22 01:32:00,46.0,32.0,-100.00,NNE,33,5.0,8.0,59,-99.99,,,-99.99,,2013-04-22 08:32:00,
2013-04-22 01:41:00,45.0,32.0,-100.00,NNE,32,4.0,7.0,59,-99.99,,,-99.99,,2013-04-22 08:41:00,
2013-04-22 01:52:00,45.0,32.0,-100.00,NNE,31,4.0,7.0,60,-99.99,,,-99.99,,2013-04-22 08:52:00,
2013-04-22 02:01:00,45.0,32.0,-100.00,NE,36,5.0,8.0,61,-99.99,,,-99.99,,2013-04-22 09:01:00,
2013-04-22 02:11:00,45.0,32.0,-100.00,NNE,27,5.0,8.0,61,-99.99,,,-99.99,,2013-04-22 09:11:00,
2013-04-22 02:21:00,45.0,32.0,-100.00,NNE,31,6.0,8.0,61,-99.99,,,-99.99,,2013-04-22 09:21:00,
2013-04-22 02:32:00,45.0,32.0,-100.00,NE,41,6.0,9.0,61,-99.99,,,-99.99,,2013-04-22 09:32:00,
2013-04-22 02:42:00,46.0,32.0,-100.00,NE,49,7.0,10.0,59,-99.99,,,-99.99,,2013-04-22 09:42:00,
2013-04-22 02:52:00,45.0,32.0,-100.00,NE,40,7.0,10.0,59,-99.99,,,-99.99,,2013-04-22 09:52:00,
2013-04-22 03:03:00,44.0,31.0,-100.00,NNE,31,5.0,8.0,61,-99.99,,,-99.99,,2013-04-22 10:03:00,
2013-04-22 03:12:00,43.0,30.0,-100.00,NNE,31,5.0,7.0,61,-99.99,,,-99.99,,2013-04-22 10:12:00,
2013-04-22 03:22:00,43.0,30.0,-100.00,NE,34,5.0,7.0,61,-99.99,,,-99.99,,2013-04-22 10:22:00,
2013-04-22 03:32:00,43.0,30.0,-100.00,NE,35,5.0,7.0,61,-99.99,,,-99.99,,2013-04-22 10:32:00,
2013-04-22 03:42:00,43.0,30.0,-100.00,NE,35,5.0,7.0,61,-99.99,,,-99.99,,2013-04-22 10:42:00,
2013-04-22 03:52:00,43.0,31.0,-100.00,NNE,32,4.0,7.0,62,-99.99,,,-99.99,,2013-04-22 10:52:00,
2013-04-22 04:02:00,42.0,30.0,-100.00,NNE,23,4.0,6.0,62,-99.99,,,-99.99,,2013-04-22 11:02:00,
2013-04-22 04:12:00,42.0,30.0,-100.00,NNE,32,6.0,8.0,62,-99.99,,,-99.99,,2013-04-22 11:12:00,
2013-04-22 04:22:00,44.0,31.0,-100.00,NE,48,6.0,9.0,60,-99.99,,,-99.99,,2013-04-22 11:22:00,
2013-04-22 04:32:00,44.0,31.0,-100.00,NE,48,6.0,9.0,60,-99.99,,,-99.99,,2013-04-22 11:32:00,
2013-04-22 04:42:00,42.0,30.0,-100.00,NE,39,6.0,8.0,62,-99.99,,,-99.99,,2013-04-22 11:42:00,
2013-04-22 04:52:00,42.0,30.0,-100.00,NE,46,6.0,8.0,61,-99.99,,,-99.99,,2013-04-22 11:52:00,
2013-04-22 05:01:00,43.0,30.0,-100.00,NE,47,6.0,8.0,59,-99.99,,,-99.99,,2013-04-22 12:01:00,
2013-04-22 05:12:00,43.0,30.0,-100.00,NE,46,7.0,9.0,59,-99.99,,,-99.99,,2013-04-22 12:12:00,
2013-04-22 05:21:00,42.0,29.0,-100.00,NE,39,7.0,9.0,59,-99.99,,,-99.99,,2013-04-22 12:21:00,
2013-04-22 05:31:00,42.0,28.0,-100.00,NE,43,6.0,8.0,58,-99.99,,,-99.99,,2013-04-22 12:31:00,
2013-04-22 05:42:00,42.0,28.0,-100.00,NE,43,6.0,8.0,58,-99.99,,,-99.99,,2013-04-22 12:42:00,
2013-04-22 05:52:00,41.0,29.0,-100.00,NNE,25,4.0,6.0,63,-99.99,,,-99.99,,2013-04-22 12:52:00,
2013-04-22 06:01:00,40.0,28.0,-100.00,NNE,27,4.0,6.0,62,-99.99,,,-99.99,,2013-04-22 13:01:00,
2013-04-22 06:11:00,41.0,28.0,-100.00,NNE,30,5.0,8.0,60,-99.99,,,-99.99,,2013-04-22 13:11:00,
2013-04-22 06:22:00,41.0,27.0,-100.00,NE,35,6.0,8.0,57,-99.99,,,-99.99,,2013-04-22 13:22:00,
2013-04-22 06:31:00,41.0,27.0,-100.00,NE,35,6.0,9.0,57,-99.99,,,-99.99,,2013-04-22 13:31:00,
2013-04-22 06:41:00,41.0,27.0,-100.00,NE,34,6.0,9.0,57,-99.99,,,-99.99,,2013-04-22 13:41:00,
2013-04-22 06:52:00,41.0,27.0,-100.00,NE,34,6.0,9.0,56,-99.99,,,-99.99,,2013-04-22 13:52:00,
2013-04-22 07:01:00,42.0,27.0,-100.00,NE,36,6.0,9.0,55,-99.99,,,-99.99,,2013-04-22 14:01:00,
2013-04-22 07:11:00,42.0,26.0,-100.00,NE,35,6.0,9.0,53,-99.99,,,-99.99,,2013-04-22 14:11:00,
2013-04-22 07:21:00,43.0,26.0,-100.00,NE,38,7.0,10.0,51,-99.99,,,-99.99,,2013-04-22 14:21:00,
2013-04-22 07:33:00,44.0,26.0,-100.00,NE,42,7.0,10.0,48,-99.99,,,-99.99,,2013-04-22 14:33:00,
2013-04-22 07:42:00,46.0,26.0,-100.00,NE,47,9.0,12.0,45,-99.99,,,-99.99,,2013-04-22 14:42:00,
2013-04-22 07:51:00,48.0,27.0,-100.00,NE,53,7.0,10.0,43,-99.99,,,-99.99,,2013-04-22 14:51:00,
2013-04-22 08:01:00,50.0,28.0,-100.00,NE,42,5.0,8.0,42,-99.99,,,-99.99,,2013-04-22 15:01:00,
2013-04-22 08:11:00,51.0,28.0,-100.00,NE,41,5.0,7.0,40,-99.99,,,-99.99,,2013-04-22 15:11:00,
2013-04-22 08:22:00,54.0,30.0,-100.00,NE,47,3.0,5.0,39,-99.99,,,-99.99,,2013-04-22 15:22:00,
2013-04-22 08:33:00,58.0,31.0,-100.00,ENE,64,1.0,2.0,35,-99.99,,,-99.99,,2013-04-22 15:33:00,
2013-04-22 08:42:00,62.0,30.0,-100.00,NE,48,1.0,2.0,30,-99.99,,,-99.99,,2013-04-22 15:42:00,
2013-04-22 08:53:00,65.0,30.0,-100.00,SE,139,1.0,2.0,27,-99.99,,,-99.99,,2013-04-22 15:53:00,
2013-04-22 09:02:00,65.0,27.0,-100.00,SSW,199,1.0,3.0,24,-99.99,,,-99.99,,2013-04-22 16:02:00,
2013-04-22 09:22:00,67.0,27.0,-100.00,SSW,194,2.0,3.0,22,-99.99,,,-99.99,,2013-04-22 16:22:00,
2013-04-22 09:32:00,67.0,27.0,-100.00,WSW,243,2.0,4.0,22,-99.99,,,-99.99,,2013-04-22 16:32:00,
2013-04-22 09:42:00,69.0,22.0,-100.00,SW,234,2.0,5.0,17,-99.99,,,-99.99,,2013-04-22 16:42:00,
2013-04-22 10:12:00,70.0,19.0,-100.00,WSW,248,5.0,9.0,14,-99.99,,,-99.99,,2013-04-22 17:12:00,
2013-04-22 10:22:00,70.0,20.0,-100.00,WSW,250,5.0,10.0,15,-99.99,,,-99.99,,2013-04-22 17:22:00,
2013-04-22 10:31:00,71.0,21.0,-100.00,SW,220,6.0,9.0,15,-99.99,,,-99.99,,2013-04-22 17:31:00,
2013-04-22 10:42:00,71.0,21.0,-100.00,SW,220,6.0,9.0,15,-99.99,,,-99.99,,2013-04-22 17:42:00,
2013-04-22 10:51:00,72.0,20.0,-100.00,SW,232,5.0,10.0,14,-99.99,,,-99.99,,2013-04-22 17:51:00,
2013-04-22 11:01:00,72.0,20.0,-100.00,SW,222,6.0,11.0,14,-99.99,,,-99.99,,2013-04-22 18:01:00,
2013-04-22 11:12:00,72.0,20.0,-100.00,SW,227,7.0,13.0,14,-99.99,,,-99.99,,2013-04-22 18:12:00,
2013-04-22 11:21:00,73.0,21.0,-100.00,SW,226,7.0,12.0,14,-99.99,,,-99.99,,2013-04-22 18:21:00,
2013-04-22 11:31:00,74.0,22.0,-100.00,WSW,242,8.0,13.0,14,-99.99,,,-99.99,,2013-04-22 18:31:00,
2013-04-22 11:42:00,74.0,22.0,-100.00,WSW,247,8.0,13.0,14,-99.99,,,-99.99,,2013-04-22 18:42:00,
2013-04-22 11:52:00,75.0,23.0,-100.00,SW,222,8.0,13.0,14,-99.99,,,-99.99,,2013-04-22 18:52:00,
2013-04-22 12:01:00,75.0,23.0,-100.00,WSW,244,8.0,14.0,14,-99.99,,,-99.99,,2013-04-22 19:01:00,
2013-04-22 12:11:00,75.0,23.0,-100.00,SW,232,8.0,12.0,14,-99.99,,,-99.99,,2013-04-22 19:11:00,
2013-04-22 12:21:00,75.0,21.0,-100.00,SW,228,10.0,15.0,13,-99.99,,,-99.99,,2013-04-22 19:21:00,
2013-04-22 12:32:00,75.0,23.0,-100.00,SW,217,11.0,16.0,14,-99.99,,,-99.99,,2013-04-22 19:32:00,
2013-04-22 12:42:00,75.0,24.0,-100.00,SW,235,10.0,16.0,15,-99.99,,,-99.99,,2013-04-22 19:42:00,
2013-04-22 12:52:00,75.0,26.0,-100.00,SW,232,10.0,19.0,16,-99.99,,,-99.99,,2013-04-22 19:52:00,
2013-04-22 13:01:00,75.0,24.0,-100.00,WSW,237,10.0,16.0,15,-99.99,,,-99.99,,2013-04-22 20:01:00,
2013-04-22 13:11:00,76.0,22.0,-100.00,WSW,237,9.0,16.0,13,-99.99,,,-99.99,,2013-04-22 20:11:00,
2013-04-22 13:22:00,75.0,19.0,-100.00,SW,228,11.0,17.0,12,-99.99,,,-99.99,,2013-04-22 20:22:00,
2013-04-22 13:31:00,75.0,19.0,-100.00,SW,230,10.0,15.0,12,-99.99,,,-99.99,,2013-04-22 20:31:00,
2013-04-22 13:41:00,76.0,20.0,-100.00,SW,218,12.0,17.0,12,-99.99,,,-99.99,,2013-04-22 20:41:00,
2013-04-22 13:51:00,76.0,20.0,-100.00,SW,220,11.0,17.0,12,-99.99,,,-99.99,,2013-04-22 20:51:00,
2013-04-22 14:01:00,76.0,20.0,-100.00,SW,220,11.0,17.0,12,-99.99,,,-99.99,,2013-04-22 21:01:00,
2013-04-22 14:11:00,76.0,23.0,-100.00,SW,223,12.0,19.0,14,-99.99,,,-99.99,,2013-04-22 21:11:00,
2013-04-22 14:21:00,76.0,27.0,-100.00,SW,216,14.0,19.0,16,-99.99,,,-99.99,,2013-04-22 21:21:00,
2013-04-22 14:32:00,75.0,27.0,-100.00,SW,218,13.0,20.0,17,-99.99,,,-99.99,,2013-04-22 21:32:00,
2013-04-22 14:42:00,75.0,30.0,-100.00,SW,232,12.0,19.0,19,-99.99,,,-99.99,,2013-04-22 21:42:00,
2013-04-22 14:52:00,77.0,32.0,-100.00,SW,223,10.0,16.0,19,-99.99,,,-99.99,,2013-04-22 21:52:00,
2013-04-22 15:02:00,76.0,33.0,-100.00,SW,227,13.0,18.0,21,-99.99,,,-99.99,,2013-04-22 22:02:00,
2013-04-22 15:12:00,75.0,35.0,-100.00,SW,222,14.0,21.0,23,-99.99,,,-99.99,,2013-04-22 22:12:00,
2013-04-22 15:22:00,75.0,37.0,-100.00,SW,218,15.0,23.0,25,-99.99,,,-99.99,,2013-04-22 22:22:00,
2013-04-22 15:32:00,74.0,38.0,-100.00,SW,222,14.0,22.0,27,-99.99,,,-99.99,,2013-04-22 22:32:00,
2013-04-22 15:42:00,74.0,39.0,-100.00,SW,224,13.0,19.0,28,-99.99,,,-99.99,,2013-04-22 22:42:00,
2013-04-22 15:52:00,73.0,40.0,-100.00,SW,220,14.0,21.0,30,-99.99,,,-99.99,,2013-04-22 22:52:00,
2013-04-22 16:02:00,73.0,41.0,-100.00,SW,223,14.0,21.0,31,-99.99,,,-99.99,,2013-04-22 23:02:00,
2013-04-22 16:11:00,73.0,41.0,-100.00,SW,216,15.0,20.0,32,-99.99,,,-99.99,,2013-04-22 23:11:00,
2013-04-22 16:21:00,73.0,42.0,-100.00,SW,219,14.0,20.0,33,-99.99,,,-99.99,,2013-04-22 23:21:00,
2013-04-22 16:32:00,72.0,41.0,-100.00,SW,222,13.0,19.0,33,-99.99,,,-99.99,,2013-04-22 23:32:00,
2013-04-22 16:42:00,73.0,41.0,-100.00,SW,222,12.0,21.0,32,-99.99,,,-99.99,,2013-04-22 23:42:00,
2013-04-22 16:52:00,73.0,41.0,-100.00,SW,226,12.0,19.0,32,-99.99,,,-99.99,,2013-04-22 23:52:00,
2013-04-22 17:01:00,72.0,41.0,-100.00,SW,229,12.0,20.0,33,-99.99,,,-99.99,,2013-04-23 00:01:00,
2013-04-22 17:12:00,72.0,41.0,-100.00,SW,229,12.0,20.0,33,-99.99,,,-99.99,,2013-04-23 00:12:00,
2013-04-22 17:21:00,71.0,41.0,-100.00,SW,228,13.0,19.0,34,-99.99,,,-99.99,,2013-04-23 00:21:00,
2013-04-22 17:31:00,71.0,41.0,-100.00,SW,231,11.0,18.0,34,-99.99,,,-99.99,,2013-04-23 00:31:00,
2013-04-22 17:42:00,71.0,41.0,-100.00,SW,231,11.0,18.0,34,-99.99,,,-99.99,,2013-04-23 00:42:00,
2013-04-22 17:51:00,70.0,43.0,-100.00,SW,224,12.0,17.0,37,-99.99,,,-99.99,,2013-04-23 00:51:00,
2013-04-22 18:01:00,69.0,42.0,-100.00,SW,227,12.0,17.0,38,-99.99,,,-99.99,,2013-04-23 01:01:00,
2013-04-22 18:11:00,69.0,43.0,-100.00,SW,228,11.0,17.0,39,-99.99,,,-99.99,,2013-04-23 01:11:00,
2013-04-22 18:21:00,69.0,44.0,-100.00,SW,232,10.0,15.0,40,-99.99,,,-99.99,,2013-04-23 01:21:00,
2013-04-22 18:31:00,68.0,43.0,-100.00,SW,228,10.0,15.0,41,-99.99,,,-99.99,,2013-04-23 01:31:00,
2013-04-22 18:42:00,68.0,44.0,-100.00,SW,227,10.0,15.0,42,-99.99,,,-99.99,,2013-04-23 01:42:00,
2013-04-22 18:52:00,67.0,44.0,-100.00,SW,229,10.0,14.0,43,-99.99,,,-99.99,,2013-04-23 01:52:00,
2013-04-22 19:01:00,66.0,44.0,-100.00,SW,219,10.0,16.0,45,-99.99,,,-99.99,,2013-04-23 02:01:00,
2013-04-22 19:12:00,65.0,44.0,-100.00,SW,219,9.0,13.0,46,-99.99,,,-99.99,,2013-04-23 02:12:00,
2013-04-22 19:21:00,65.0,45.0,-100.00,SW,217,9.0,12.0,48,-99.99,,,-99.99,,2013-04-23 02:21:00,
2013-04-22 19:32:00,64.0,45.0,-100.00,SW,225,7.0,11.0,50,-99.99,,,-99.99,,2013-04-23 02:32:00,
2013-04-22 19:42:00,62.0,45.0,-100.00,SW,226,8.0,11.0,54,-99.99,,,-99.99,,2013-04-23 02:42:00,
2013-04-22 19:52:00,61.0,46.0,-100.00,SW,223,7.0,12.0,57,-99.99,,,-99.99,,2013-04-23 02:52:00,
2013-04-22 20:01:00,60.0,46.0,-100.00,SW,224,7.0,11.0,59,-99.99,,,-99.99,,2013-04-23 03:01:00,
2013-04-22 20:11:00,59.0,46.0,-100.00,SW,232,5.0,8.0,61,-99.99,,,-99.99,,2013-04-23 03:11:00,
2013-04-22 20:21:00,58.0,45.0,-100.00,WSW,237,6.0,7.0,63,-99.99,,,-99.99,,2013-04-23 03:21:00,
2013-04-22 20:33:00,58.0,46.0,-100.00,WSW,246,6.0,7.0,65,-99.99,,,-99.99,,2013-04-23 03:33:00,
2013-04-22 20:43:00,57.0,46.0,-100.00,WSW,245,6.0,7.0,67,-99.99,,,-99.99,,2013-04-23 03:43:00,
2013-04-22 20:52:00,56.0,46.0,-100.00,WSW,252,4.0,6.0,68,-99.99,,,-99.99,,2013-04-23 03:52:00,
2013-04-22 21:03:00,56.0,46.0,-100.00,WSW,247,3.0,5.0,68,-99.99,,,-99.99,,2013-04-23 04:03:00,
2013-04-22 21:12:00,55.0,45.0,-100.00,NE,37,2.0,3.0,69,-99.99,,,-99.99,,2013-04-23 04:12:00,
2013-04-22 21:23:00,54.0,46.0,-100.00,NNE,33,2.0,3.0,73,-99.99,,,-99.99,,2013-04-23 04:23:00,
2013-04-22 21:32:00,53.0,45.0,-100.00,NNE,32,3.0,3.0,75,-99.99,,,-99.99,,2013-04-23 04:32:00,
2013-04-22 21:43:00,53.0,46.0,-100.00,NNE,12,2.0,2.0,76,-99.99,,,-99.99,,2013-04-23 04:43:00,
2013-04-22 21:52:00,52.0,45.0,-100.00,NNE,21,3.0,4.0,76,-99.99,,,-99.99,,2013-04-23 04:52:00,
2013-04-22 22:02:00,51.0,44.0,-100.00,NE,35,3.0,3.0,76,-99.99,,,-99.99,,2013-04-23 05:02:00,
2013-04-22 22:12:00,51.0,44.0,-100.00,ENE,61,3.0,4.0,77,-99.99,,,-99.99,,2013-04-23 05:12:00,
2013-04-22 22:22:00,52.0,45.0,-100.00,ENE,59,1.0,3.0,77,-99.99,,,-99.99,,2013-04-23 05:22:00,
2013-04-22 22:32:00,50.0,43.0,-100.00,NNE,29,3.0,4.0,77,-99.99,,,-99.99,,2013-04-23 05:32:00,
2013-04-22 22:42:00,49.0,42.0,-100.00,NE,53,3.0,4.0,78,-99.99,,,-99.99,,2013-04-23 05:42:00,
2013-04-22 22:52:00,49.0,42.0,-100.00,ENE,58,2.0,4.0,78,-99.99,,,-99.99,,2013-04-23 05:52:00,
2013-04-22 23:01:00,49.0,42.0,-100.00,NE,43,2.0,4.0,77,-99.99,,,-99.99,,2013-04-23 06:01:00,
2013-04-22 23:12:00,47.0,41.0,-100.00,NE,37,3.0,4.0,79,-99.99,,,-99.99,,2013-04-23 06:12:00,
2013-04-22 23:21:00,46.0,40.0,-100.00,NE,37,4.0,5.0,79,-99.99,,,-99.99,,2013-04-23 06:21:00,
2013-04-22 23:32:00,46.0,41.0,-100.00,NE,46,4.0,5.0,81,-99.99,,,-99.99,,2013-04-23 06:32:00,
2013-04-22 23:41:00,46.0,41.0,-100.00,NE,46,4.0,5.0,81,-99.99,,,-99.99,,2013-04-23 06:41:00,
2013-04-22 23:52:00,46.0,41.0,-100.00,NE,44,3.0,5.0,82,-99.99,,,-99.99,,2013-04-23 06:52:00,